�N����,����,�~����,�C��,���x,�C��,����,���ϕ���,�ő�u�ԕ���,�ő厞����,���˗�,�I�_���x,�n�����x,�ő啗���N��,DTYPE
"18/10/12","00:10",0.0,17.1,83.8,1012.3,309.5,2.3,5.0,337.0,0.00,14.4,20.0,"00:05:12",1
"18/10/12","00:20",0.0,17.1,82.7,1012.6,323.2,2.5,5.5,348.9,0.00,14.2,20.0,"00:10:32",1
"18/10/12","00:30",0.0,17.0,82.2,1012.6,323.8,2.2,4.4,343.1,0.00,14.0,19.8,"00:22:24",1
"18/10/12","00:40",0.0,17.0,81.7,1012.6,311.8,1.8,3.9,333.1,0.00,13.9,20.1,"00:35:12",1
"18/10/12","00:50",0.0,16.9,80.8,1012.8,316.3,2.0,4.5,328.2,0.00,13.6,20.0,"00:48:32",1
"18/10/12","01:00",0.0,16.9,80.5,1013.3,323.4,2.1,5.0,342.1,0.00,13.6,19.8,"00:50:40",1
"18/10/12","01:10",0.0,16.7,80.9,1013.3,313.9,1.7,3.7,340.2,0.00,13.4,19.6,"01:06:16",1
"18/10/12","01:20",0.0,16.6,80.9,1013.3,315.3,1.3,3.4,327.6,0.00,13.3,19.8,"01:15:20",1
"18/10/12","01:30",0.0,16.6,79.5,1012.8,318.6,2.0,4.4,334.0,0.00,13.1,19.7,"01:23:12",1
"18/10/12","01:40",0.0,16.6,78.5,1013.3,326.9,2.2,4.5,336.9,0.00,12.9,19.9,"01:30:56",1
"18/10/12","01:50",0.0,16.3,79.5,1013.3,326.5,1.6,2.9,348.6,0.00,12.8,19.7,"01:40:16",1
"18/10/12","02:00",0.0,16.3,79.2,1013.5,324.4,2.6,4.9,343.4,0.00,12.7,19.6,"01:51:52",1
"18/10/12","02:10",0.0,16.3,78.3,1014.0,316.0,2.5,6.6,330.6,0.00,12.6,19.7,"02:06:44",1
"18/10/12","02:20",0.0,16.3,77.9,1013.8,313.7,1.6,3.6,334.4,0.00,12.5,19.8,"02:11:12",1
"18/10/12","02:30",0.0,16.2,77.7,1013.8,305.2,1.7,4.4,325.5,0.00,12.3,19.8,"02:29:04",1
"18/10/12","02:40",0.0,16.2,77.3,1013.5,319.7,2.2,6.0,337.4,0.00,12.3,19.8,"02:34:08",1
"18/10/12","02:50",0.0,16.0,77.3,1013.3,306.9,1.8,3.9,313.7,0.00,12.1,19.5,"02:40:32",1
"18/10/12","03:00",0.0,15.9,76.9,1013.0,305.7,2.0,3.7,324.2,0.00,11.9,19.6,"02:58:26",1
"18/10/12","03:10",0.0,15.9,75.9,1013.3,310.7,1.8,4.9,343.0,0.00,11.7,19.6,"03:01:28",1
"18/10/12","03:20",0.0,16.0,74.5,1013.5,318.5,2.2,4.7,343.8,0.00,11.5,19.5,"03:12:08",1
"18/10/12","03:30",0.0,15.9,74.1,1013.5,309.1,1.6,2.9,329.3,0.00,11.3,19.6,"03:24:48",1
"18/10/12","03:40",0.0,15.9,73.0,1013.8,295.8,1.8,4.8,335.4,0.00,11.1,19.6,"03:30:08",1
"18/10/12","03:50",0.0,16.1,72.2,1013.5,303.8,2.7,5.5,349.4,0.00,11.1,19.7,"03:43:52",1
"18/10/12","04:00",0.0,16.0,72.4,1014.0,309.2,2.0,4.0,320.2,0.00,11.1,19.6,"03:58:16",1
"18/10/12","04:10",0.0,16.0,72.4,1013.8,298.4,2.2,5.0,312.7,0.00,11.1,19.5,"04:08:48",1
"18/10/12","04:20",0.0,15.9,73.1,1013.8,317.1,1.2,2.9,305.8,0.00,11.1,19.5,"04:11:04",1
"18/10/12","04:30",0.0,15.9,73.0,1013.8,315.4,2.0,3.6,330.8,0.00,11.1,19.6,"04:24:32",1
"18/10/12","04:40",0.0,15.8,73.8,1014.0,295.8,1.7,2.9,307.6,0.00,11.2,19.4,"04:37:52",1
"18/10/12","04:50",0.0,15.8,73.8,1013.8,304.5,2.1,4.3,226.9,0.00,11.2,19.4,"04:44:08",1
"18/10/12","05:00",0.0,15.8,73.7,1014.0,323.7,2.1,6.5,339.0,0.00,11.2,19.2,"04:58:02",1
"18/10/12","05:10",0.0,15.7,74.0,1014.2,303.1,1.3,3.3,336.2,0.00,11.1,19.3,"05:03:44",1
"18/10/12","05:20",0.0,15.7,73.7,1014.2,342.1,1.6,3.2,3.2,0.00,11.1,19.3,"05:15:44",1
"18/10/12","05:30",0.0,15.6,73.6,1013.5,310.0,1.6,2.6,325.6,0.00,10.9,19.3,"05:20:58",1
"18/10/12","05:40",0.0,15.6,73.6,1014.0,305.6,1.7,4.9,314.7,0.00,10.9,19.2,"05:35:20",1
"18/10/12","05:50",0.0,15.5,73.5,1014.2,296.6,1.1,2.1,302.1,0.00,10.8,19.4,"05:47:20",1
"18/10/12","06:00",0.0,15.4,74.2,1014.2,290.2,1.2,2.1,334.7,0.00,10.9,19.3,"05:59:36",1
"18/10/12","06:10",0.0,15.3,73.8,1014.5,270.9,1.5,2.6,305.5,0.00,10.7,19.1,"06:06:32",1
"18/10/12","06:20",0.0,15.4,72.4,1014.5,299.2,1.1,2.0,336.3,0.00,10.5,19.4,"06:10:24",1
"18/10/12","06:30",0.0,15.4,71.2,1014.0,319.4,2.0,5.7,326.6,0.00,10.3,19.5,"06:28:10",1
"18/10/12","06:40",0.0,15.5,70.5,1014.5,290.1,1.6,3.2,317.2,0.00,10.2,19.1,"06:32:32",1
"18/10/12","06:50",0.0,15.3,72.3,1014.5,294.9,1.2,2.2,323.8,0.00,10.4,19.4,"06:40:02",1
"18/10/12","07:00",0.0,15.4,72.6,1014.5,324.1,1.3,2.1,330.6,0.01,10.5,19.2,"06:55:52",1
"18/10/12","07:10",0.0,15.5,73.6,1014.5,294.9,1.2,2.2,313.7,0.02,10.8,19.1,"07:00:56",1
"18/10/12","07:20",0.0,15.7,73.4,1014.9,312.5,1.1,2.4,337.6,0.03,11.0,19.3,"07:15:28",1
"18/10/12","07:30",0.0,15.9,74.8,1014.9,303.3,1.1,2.0,335.9,0.04,11.5,19.3,"07:27:12",1
"18/10/12","07:40",0.0,16.1,76.0,1014.7,314.6,0.7,1.4,329.4,0.05,11.9,19.3,"07:30:32",1
"18/10/12","07:50",0.0,16.1,73.8,1015.2,267.0,1.2,2.4,235.5,0.07,11.5,19.2,"07:49:20",1
"18/10/12","08:00",0.0,16.4,71.1,1015.2,266.1,1.3,2.7,234.2,0.08,11.2,19.1,"07:58:08",1
"18/10/12","08:10",0.0,16.8,71.4,1015.4,289.6,0.8,1.7,255.3,0.09,11.6,19.2,"08:00:08",1
"18/10/12","08:20",0.0,17.3,67.1,1015.6,270.7,1.0,1.9,240.1,0.17,11.2,19.2,"08:19:36",1
"18/10/12","08:30",0.0,17.8,67.1,1015.6,313.7,1.0,2.9,339.3,0.19,11.7,19.3,"08:26:08",1
"18/10/12","08:40",0.0,17.6,65.5,1015.6,330.1,1.5,5.5,337.5,0.17,11.1,19.3,"08:38:32",1
"18/10/12","08:50",0.0,17.8,65.0,1015.6,310.4,2.0,4.0,345.1,0.17,11.2,19.4,"08:41:36",1
"18/10/12","09:00",0.0,17.8,66.1,1015.9,321.7,2.2,5.8,341.5,0.18,11.4,19.4,"08:52:32",1
"18/10/12","09:10",0.0,17.9,67.1,1015.6,332.2,1.6,3.3,338.5,0.16,11.8,19.6,"09:01:04",1
"18/10/12","09:20",0.0,18.6,64.3,1015.4,343.3,2.0,4.1,335.5,0.25,11.8,19.6,"09:18:24",1
"18/10/12","09:30",0.0,18.5,62.0,1015.6,334.8,2.5,6.4,331.0,0.33,11.1,19.7,"09:27:20",1
"18/10/12","09:40",0.0,18.1,63.2,1015.6,325.2,1.8,5.6,316.2,0.23,11.0,19.7,"09:37:12",1
"18/10/12","09:50",0.0,19.1,63.1,1014.9,339.1,1.8,3.9,335.8,0.28,12.0,19.7,"09:42:24",1
"18/10/12","10:00",0.0,18.6,62.8,1014.9,330.3,2.0,4.9,330.0,0.27,11.4,20.1,"09:59:28",1
"18/10/12","10:10",0.0,18.3,64.1,1014.7,343.1,3.2,5.6,333.5,0.21,11.4,20.2,"10:06:08",1
"18/10/12","10:20",0.0,18.8,62.6,1015.2,341.6,2.8,6.4,347.9,0.32,11.6,20.2,"10:16:24",1
"18/10/12","10:30",0.0,18.4,62.3,1014.9,357.0,2.5,5.1,315.9,0.21,11.1,20.2,"10:24:24",1
"18/10/12","10:40",0.0,19.2,61.1,1015.2,343.1,3.1,8.8,342.2,0.40,11.6,20.4,"10:32:08",1
"18/10/12","10:50",0.0,18.7,62.6,1014.9,341.2,3.1,5.9,342.3,0.26,11.5,20.1,"10:47:36",1
"18/10/12","11:00",0.0,18.5,61.6,1014.9,332.2,3.2,8.5,343.2,0.28,11.0,20.3,"10:53:28",1
"18/10/12","11:10",0.0,18.8,60.0,1014.9,343.7,3.9,7.9,340.4,0.29,10.9,20.4,"11:04:48",1
"18/10/12","11:20",0.0,19.3,58.9,1014.9,344.3,3.7,7.4,354.9,0.43,11.1,20.3,"11:11:12",1
"18/10/12","11:30",0.0,19.4,58.5,1014.7,332.1,2.6,5.4,344.3,0.34,11.1,20.6,"11:21:04",1
"18/10/12","11:40",0.0,19.7,55.9,1014.7,341.5,2.6,5.6,342.2,0.41,10.7,20.7,"11:32:24",1
"18/10/12","11:50",0.0,20.3,54.3,1014.7,347.5,1.7,3.6,352.3,0.47,10.8,20.6,"11:41:20",1
"18/10/12","12:00",0.0,19.3,55.4,1014.7,344.8,3.0,6.2,338.2,0.37,10.2,20.7,"11:58:32",1
"18/10/12","12:10",0.0,20.1,55.4,1014.9,345.2,2.8,5.8,354.9,0.49,10.9,20.8,"12:06:16",1
"18/10/12","12:20",0.0,20.3,53.8,1014.5,340.4,1.8,4.2,345.3,0.42,10.7,21.1,"12:12:56",1
"18/10/12","12:30",0.0,19.2,54.3,1014.7,320.9,2.6,7.4,326.6,0.27,9.8,21.1,"12:29:12",1
"18/10/12","12:40",0.0,19.6,54.1,1014.2,335.0,2.8,6.3,353.6,0.32,10.1,21.2,"12:30:24",1
"18/10/12","12:50",0.0,19.8,51.6,1014.2,356.5,2.5,4.7,322.4,0.34,9.6,20.9,"12:40:24",1
"18/10/12","13:00",0.0,19.5,54.0,1014.5,338.0,1.8,4.0,345.9,0.32,10.0,21.2,"12:50:08",1
"18/10/12","13:10",0.0,19.1,56.5,1014.5,346.4,2.8,6.5,15.6,0.18,10.3,21.3,"13:08:56",1
"18/10/12","13:20",0.0,18.6,59.3,1014.5,338.5,3.6,7.5,315.6,0.19,10.6,21.2,"13:18:40",1
"18/10/12","13:30",0.0,18.8,60.9,1014.5,334.6,2.3,4.5,333.2,0.17,11.1,21.3,"13:20:56",1
"18/10/12","13:40",0.0,20.2,58.6,1014.5,316.8,1.7,4.8,343.3,0.43,11.9,21.4,"13:31:28",1
"18/10/12","13:50",0.0,20.0,57.4,1014.7,340.6,2.6,5.5,316.4,0.42,11.4,21.4,"13:45:52",1
"18/10/12","14:00",0.0,19.1,58.3,1014.7,346.1,1.5,4.9,332.4,0.17,10.8,21.3,"13:59:52",1
"18/10/12","14:10",0.0,18.6,59.0,1014.9,334.5,3.5,7.2,340.6,0.06,10.5,21.5,"14:09:44",1
"18/10/12","14:20",0.0,18.7,62.2,1015.2,334.4,3.0,6.5,330.1,0.15,11.4,21.4,"14:11:20",1
"18/10/12","14:30",0.0,18.4,60.6,1015.2,339.1,3.0,4.9,349.8,0.14,10.7,21.3,"14:29:44",1
"18/10/12","14:40",0.0,18.3,61.3,1014.9,337.7,3.4,6.6,329.3,0.14,10.8,21.3,"14:34:32",1
"18/10/12","14:50",0.0,18.6,61.3,1014.9,345.1,2.6,4.9,318.5,0.18,11.1,21.4,"14:44:00",1
"18/10/12","15:00",0.0,18.5,62.5,1014.9,324.9,2.2,3.9,330.1,0.15,11.3,21.3,"14:58:00",1
"18/10/12","15:10",0.0,18.8,63.3,1014.9,318.2,1.8,4.2,331.8,0.17,11.7,21.2,"15:00:16",1
"18/10/12","15:20",0.0,18.7,62.1,1014.9,314.5,2.5,5.1,321.6,0.19,11.3,21.2,"15:11:44",1
"18/10/12","15:30",0.0,18.7,62.4,1015.2,333.2,2.8,6.2,346.7,0.16,11.4,21.2,"15:26:32",1
"18/10/12","15:40",0.0,18.5,62.2,1015.4,340.0,2.7,6.5,349.1,0.14,11.2,21.3,"15:34:32",1
"18/10/12","15:50",0.0,18.6,61.7,1015.2,333.7,3.2,7.7,330.1,0.15,11.2,21.2,"15:49:36",1
"18/10/12","16:00",0.0,18.7,62.3,1014.7,351.4,2.3,4.7,317.1,0.17,11.4,21.1,"15:58:08",1
"18/10/12","16:10",0.0,18.9,60.0,1015.2,338.5,2.2,5.0,340.6,0.10,11.0,21.3,"16:07:20",1
"18/10/12","16:20",0.0,18.6,63.3,1014.9,332.9,2.5,6.3,331.5,0.08,11.5,21.2,"16:10:40",1
"18/10/12","16:30",0.0,18.6,64.3,1015.2,343.3,2.1,3.9,328.6,0.07,11.8,21.2,"16:24:00",1
"18/10/12","16:40",0.0,18.1,64.4,1014.9,332.0,2.5,4.5,347.1,0.05,11.3,21.1,"16:32:24",1
"18/10/12","16:50",0.0,17.9,64.2,1015.4,330.0,3.1,5.2,334.8,0.05,11.1,21.1,"16:45:28",1
"18/10/12","17:00",0.0,17.5,65.7,1015.4,332.5,3.2,6.6,331.5,0.02,11.1,20.9,"16:56:00",1
"18/10/12","17:10",0.0,17.4,66.0,1015.4,317.6,2.2,4.5,342.1,0.02,11.0,20.9,"17:08:08",1
"18/10/12","17:20",0.0,17.1,67.6,1015.4,333.2,2.3,4.4,343.4,0.00,11.1,20.6,"17:11:44",1
"18/10/12","17:30",0.0,16.8,68.4,1015.4,328.9,2.3,5.0,330.4,0.00,11.0,20.7,"17:22:00",1
"18/10/12","17:40",0.0,16.7,68.8,1015.4,328.2,2.0,4.0,329.9,0.00,11.0,20.4,"17:30:40",1
"18/10/12","17:50",0.0,16.5,70.0,1015.6,328.7,1.8,3.1,337.5,0.00,11.1,20.6,"17:45:20",1
"18/10/12","18:00",0.0,16.3,70.9,1015.6,321.8,1.6,2.7,312.4,0.00,11.1,20.8,"17:57:36",1
"18/10/12","18:10",0.0,16.1,72.2,1016.1,332.8,1.6,2.9,339.9,0.00,11.1,20.6,"18:00:40",1
"18/10/12","18:20",0.0,15.6,74.4,1016.1,329.2,1.2,2.0,304.1,0.00,11.1,20.4,"18:12:08",1
"18/10/12","18:30",0.0,15.0,77.7,1016.1,297.0,0.7,1.0,311.4,0.00,11.2,20.3,"18:20:08",1
"18/10/12","18:40",0.0,14.7,80.7,1017.1,332.0,1.1,1.4,329.1,0.00,11.5,20.3,"18:36:08",1
"18/10/12","18:50",0.0,14.4,82.3,1016.6,329.8,1.3,2.4,344.6,0.00,11.5,20.0,"18:49:04",1
"18/10/12","19:00",0.0,14.1,83.9,1016.6,299.0,1.1,1.9,330.7,0.00,11.5,20.0,"18:51:44",1
"18/10/12","19:10",0.0,14.0,84.2,1016.6,325.7,1.1,1.4,323.2,0.00,11.4,19.9,"19:08:08",1
"18/10/12","19:20",0.0,13.7,85.3,1016.6,313.0,0.6,1.3,318.8,0.00,11.3,19.8,"19:10:16",1
"18/10/12","19:30",0.0,13.4,87.2,1017.1,318.8,1.1,1.6,321.0,0.00,11.4,19.7,"19:21:44",1
"18/10/12","19:40",0.0,13.5,87.4,1016.4,322.1,1.1,2.0,330.9,0.00,11.5,19.7,"19:30:02",1
"18/10/12","19:50",0.0,13.5,87.5,1016.6,334.2,1.1,1.8,338.5,0.00,11.5,19.4,"19:46:16",1
"18/10/12","20:00",0.0,13.3,87.7,1016.4,298.3,0.8,1.1,303.3,0.00,11.3,19.7,"19:53:36",1
"18/10/12","20:10",0.0,13.0,88.4,1016.6,314.7,1.1,1.4,320.3,0.00,11.2,19.6,"20:09:06",1
"18/10/12","20:20",0.0,12.9,88.8,1016.8,323.6,1.5,1.9,325.5,0.00,11.1,19.6,"20:11:28",1
"18/10/12","20:30",0.0,12.8,88.9,1016.6,323.8,1.3,2.0,314.7,0.00,11.1,19.5,"20:27:04",1
"18/10/12","20:40",0.0,12.4,89.2,1017.1,295.6,1.0,2.0,326.0,0.00,10.7,19.4,"20:37:46",1
"18/10/12","20:50",0.0,12.1,90.4,1017.1,319.8,1.3,2.4,331.7,0.00,10.6,19.0,"20:47:44",1
"18/10/12","21:00",0.0,12.1,91.1,1017.3,311.5,1.8,2.4,318.3,0.00,10.7,19.1,"20:52:02",1
"18/10/12","21:10",0.0,12.1,91.4,1017.3,320.1,2.0,2.7,327.0,0.00,10.8,19.1,"21:05:32",1
"18/10/12","21:20",0.0,12.1,91.7,1017.1,312.0,1.5,1.9,314.4,0.00,10.8,19.1,"21:10:34",1
"18/10/12","21:30",0.0,12.0,91.5,1017.3,319.9,1.7,2.1,318.7,0.00,10.7,18.7,"21:23:06",1
"18/10/12","21:40",0.0,11.8,92.1,1017.8,312.3,1.3,2.2,319.9,0.00,10.6,18.9,"21:30:08",1
"18/10/12","21:50",0.0,11.8,92.1,1017.3,322.2,1.6,2.1,328.5,0.00,10.6,18.9,"21:41:16",1
"18/10/12","22:00",0.0,12.0,92.3,1017.8,310.8,2.0,3.1,333.3,0.00,10.8,18.6,"21:55:54",1
"18/10/12","22:10",0.0,12.3,91.7,1017.8,325.7,2.3,4.0,334.8,0.00,11.0,18.8,"22:09:40",1
"18/10/12","22:20",0.0,12.4,91.0,1017.5,325.9,2.6,3.4,319.1,0.00,11.0,18.7,"22:13:44",1
"18/10/12","22:30",0.0,12.4,90.4,1017.5,328.1,2.3,3.2,328.0,0.00,10.9,18.8,"22:21:52",1
"18/10/12","22:40",0.0,12.4,90.3,1017.8,328.4,2.2,3.3,331.9,0.00,10.9,18.6,"22:36:32",1
"18/10/12","22:50",0.0,12.4,89.9,1017.8,325.5,2.5,3.2,335.9,0.00,10.8,18.6,"22:42:14",1
"18/10/12","23:00",0.0,12.4,89.7,1017.8,312.7,2.3,3.6,318.6,0.00,10.8,18.4,"22:55:50",1
"18/10/12","23:10",0.0,12.5,88.8,1017.8,312.8,2.1,3.3,318.8,0.00,10.7,18.4,"23:04:54",1
"18/10/12","23:20",0.0,12.5,88.5,1018.2,326.7,2.3,3.7,337.3,0.00,10.7,18.3,"23:15:36",1
"18/10/12","23:30",0.0,12.3,88.8,1018.0,330.9,2.1,3.4,327.9,0.00,10.5,18.4,"23:23:00",1
"18/10/12","23:40",0.0,12.2,89.1,1018.0,328.4,2.1,3.3,324.4,0.00,10.5,18.3,"23:30:48",1
"18/10/12","23:50",0.0,12.4,89.1,1018.0,323.4,2.5,3.6,332.1,0.00,10.7,18.2,"23:49:16",1
"18/10/12","24:00",0.0,12.6,88.6,1017.8,322.2,2.5,3.6,324.1,0.00,10.8,18.3,"23:53:36",1
